Content
SEND FEEDBACK

Daily
Averages
Monthly
Summary
United States of America

STATEN ISLAND, NEW YORK


Home > North America > United States > New York
Elevation: 152 feet     Latitude: 40 35N     Longitude: 074 09W

WEATHER
 
SELECT A DAY
Number of Records: 187,527;   Date Range: 1/1/95 - 4/15/14
 
SHARE

PRINT THIS DATA

[ ← Previous Day ]
WEATHER ALMANAC - JANUARY 25, 2013
[ Next Day → ]
[ °C ]   °F
Weather ElementAverageHighLow
Temperature18.6 °F24.1 °F (2:51 pm)12.2 °F (5:51 am)
Dewpoint8.1 °F16 °F (5:51 pm)-2.9 °F (1:51 am)
Humidity65.9 %88 % (6:51 pm)39 % (1:51 pm)
Barometer30.25 in30.43 in (1:51 am)30.08 in (10:51 pm)
Wind Speed7.4 mph16.1 mph (2:51 am)
Wind Gust23 mph (3:51 am)
Weather ElementAverage
Visibility6.6 mi
Wind DirectionSW (230.6 °)

Weather ElementTotal
Precipitation0.08 in
Heating Degree Days46.9 (Base 65)
Averaged from 33 records on January 25, 2013
WEATHER CONDITIONS BREAKOUT
WIND DIRECTION BREAKOUT
WEATHER BY HOUR - JANUARY 25, 2013
[ °C ]   °F
Local TimeTemperatureDewpointHumidityBarometerVisibilityWind DirectionWind SpeedGust SpeedPrecipitationEventsConditions
1:51 AM14.0 °F-2.9 °F47 %30.43 in10.0 miWNW (300°)12.7 mph20.7 mphClear
2:51 AM14.0 °F-2.0 °F49 %30.43 in10.0 miWNW (290°)16.1 mphClear
3:51 AM12.9 °F-0.9 °F54 %30.43 in10.0 miWNW (290°)12.7 mph23.0 mphClear
4:51 AM12.9 °F-0.9 °F54 %30.43 in10.0 miWest (260°)5.8 mphScattered Clouds
5:51 AM12.2 °F-0.4 °F57 %30.42 in10.0 miWest (280°)13.8 mphMostly Cloudy
6:51 AM12.9 °F1.0 °F59 %30.42 in10.0 miWest (280°)6.9 mphMostly Cloudy
7:51 AM14.0 °F1.9 °F59 %30.40 in10.0 miVariable4.6 mphOvercast
8:51 AM16.0 °F3.0 °F57 %30.42 in10.0 miWNW (300°)6.9 mphOvercast
9:51 AM18.0 °F3.0 °F52 %30.43 in10.0 miWest (280°)6.9 mphOvercast
10:51 AM19.9 °F1.9 °F46 %30.40 in10.0 miWest (280°)5.8 mphOvercast
11:51 AM21.0 °F1.9 °F44 %30.33 in10.0 miNorth (10°)4.6 mphOvercast
12:51 PM21.9 °F1.9 °F42 %30.30 in10.0 miWest (260°)4.6 mphOvercast
1:51 PM23.0 °F1.0 °F39 %30.26 in10.0 miWSW (240°)4.6 mphOvercast
2:51 PM24.1 °F3.0 °F40 %30.23 in10.0 miSW (220°)6.9 mphOvercast
3:51 PM24.1 °F3.0 °F40 %30.22 in10.0 miSW (220°)8.1 mphOvercast
4:49 PM23.0 °F6.8 °F50 %30.20 in1.5 miSSW (210°)8.1 mph0.00 inSnowLight Snow
4:51 PM21.9 °F8.1 °F55 %30.20 in1.5 miSouth (190°)8.1 mph0.00 inSnowLight Snow
5:07 PM21.2 °F12.2 °F68 %30.19 in1.5 miWSW (240°)11.5 mph0.00 inSnowLight Snow
5:23 PM21.2 °F14.0 °F74 %30.19 in1.5 miSSW (210°)5.8 mph0.00 inSnowLight Snow
5:47 PM19.4 °F15.8 °F86 %30.17 in1.2 miSouth (170°)5.8 mph0.00 inSnowLight Snow
5:51 PM19.9 °F16.0 °F85 %30.16 in1.2 miSouth (170°)4.6 mph0.01 inSnowLight Snow
6:28 PM19.4 °F15.8 °F86 %30.15 in1.5 miSouth (190°)5.8 mph0.01 inSnowLight Snow
6:51 PM19.0 °F16.0 °F88 %30.14 in1.5 miSSW (210°)3.5 mph0.01 inSnowLight Snow
7:11 PM19.4 °F15.8 °F86 %30.15 in1.2 miWSW (240°)8.1 mph0.01 inSnowLight Snow
7:44 PM19.4 °F15.8 °F86 %30.14 in1.5 miWSW (250°)9.2 mph0.02 inSnowLight Snow
7:51 PM19.0 °F15.1 °F85 %30.13 in2.0 miWSW (240°)8.1 mph0.02 inSnowLight Snow
8:23 PM19.4 °F15.8 °F86 %30.13 in3.0 miWSW (250°)8.1 mph0.00 inSnowLight Snow
8:39 PM19.4 °F15.8 °F86 %30.12 in7.0 miWSW (250°)5.8 mph0.00 inSnowLight Snow
8:51 PM19.9 °F15.1 °F81 %30.12 in7.0 miWSW (250°)6.9 mph0.00 inSnowLight Snow
9:19 PM17.6 °F14.0 °F86 %30.10 in8.0 miWSW (240°)6.9 mph0.00 inMostly Cloudy
9:51 PM18.0 °F14.0 °F84 %30.09 in9.0 miWest (260°)4.6 mph0.00 inScattered Clouds
10:51 PM18.0 °F12.9 °F81 %30.08 in9.0 miWest (280°)6.9 mphMostly Cloudy
11:51 PM17.1 °F12.9 °F84 %30.08 in10.0 miWSW (250°)4.6 mphMostly Cloudy
Hourly data recorded from KEWR, located 7.46 miles away from Staten Island, New York







STORIES FROM OUR PARTNERS